STARLINK-4059, 53250

Orbit data source: Space-Track

STARLINK-4059, 53250 is a payload satellite owned by SpaceX/Seattle (US) in LEO that was launched on Sun, 24 Jul 2022 UTC via an FALCON 9 launch vehicle from the Air Force Eastern Test Range (AFETR). Payload-class satellites include a variety of spacecraft equipped with specific instruments for various scientific and technological missions. These include communications satellites like Starlink; space stations such as the ISS; scientific satellites like the Hubble; Earth observation satellites from companies like Planet Labs, Umbra, and HawkEye 360; GPS; miniature CubeSats for education and research; and military/defense satellites.

Loading next visibility...
Identifier
53250, 2022-086J
Orbit
LEO
Country
Flag of USUS
Related business
Manufacturer
SpaceX/Seattle
Mission
Operational Commercial Communications
Bus & Motor
STARLINK, Unknown motor
Mass
297 kg wet, ~275 kg dry
Launch date (UTC)
2022-07-24 (4 years ago)
Launch vehicle
FALCON 9
Launch site
Air Force Eastern Test Range (AFETR)
Object type
Payload
Rocket body
Debris
Shape & HBR
Box + 1 Pan, 10.1 m
Radar Cross Section
13.562 m², Large (>1 m²)

Expand to show TLE details & history
Last TLE update: 3 days ago

TLE from 3 days ago
0 STARLINK-4059
1 53250U 22086J   26170.52429763  .00000143  00000-0  27072-4 0  9997
2 53250  53.1620  96.8590 0001428  96.0281 264.0873 15.08834003216441
Epoch: 2026-06-19T12:34Z
TLE epoch observation values (Epoch: 2026-06-19T12:34:59.315Z)
Latitude
-0.00003°
Longitude
0.3598°
Altitude
540.755 km
Speed
7.593 km/s
True Right ascension
06h 27m 26s
True Declination
0° 00' 00"
Sunlit
Object was in daylight at epoch
Visualization orbit readout
Latitude
Unknown
Longitude
Unknown
Altitude
Unknown
Speed
Unknown
Apparent Right ascension
Unknown
Apparent Declination
Unknown
Sunlit
N/A
Visualization observer readout
Local Sidereal Time
21:31:00
Azimuth
Unknown
Elevation
Unknown
Doppler factor
Unknown
Orbital elements
Apogee altitude
541.003 km
Perigee altitude
539.028 km
Semi-major axis
6,918.153 km
Eccentricity
0.00014
Inclination
53.162°
RAAN
96.859°
Arg. of periapsis
96.0281°
True anomaly
264.07102°
Mean anomaly
264.0873°
Eccentric anomaly
264.07916°
Mean motion
3.77188 °/min
Orbital period
95.44 mins
BSTAR
0.000027072
Loading maneuver chart data...
Computing Atmospheric mass density...
Loading historical data...
Loading historical data...
Loading historical data...
Loading historical data...
Loading historical data...
Loading historical data...
Loading historical data...

Documentation

Showing up to 5 results
|